Location: Barchetta
(42.5065°N, 9.3702°E)
Time: 12:43:45
(UTC+00:00)

Daily predictions for brighter satellites

Satellite Brightness Start Highest point End
(mag) Time Altitude Azimuth Time Altitude Azimuth Time Altitude Azimuth
Cosmos 1943 Rocket 2.6 16:12:41 10° N 16:17:52 39° ENE 16:23:04 10° SE
NOAA 12 4.5 16:13:02 10° SE 16:18:02 44° ENE 16:23:04 10° N
ADEOS Rocket 3.7 16:10:55 10° NNE 16:18:45 89° WNW 16:26:24 10° SSW
H-2A R/B 2.2 16:18:40 10° NNE 16:22:51 56° ESE 16:27:05 10° S
NOAA 6 4.0 16:19:36 10° SSE 16:24:44 82° ENE 16:29:54 10° NNW
Okean O Rocket 2.0 16:20:47 10° SE 16:24:52 40° ENE 16:28:59 10° N
Cosmos 1782 3.9 16:22:21 10° SE 16:25:37 25° E 16:28:54 10° NNE
H-2A R/B 3.5 16:25:34 10° S 16:29:20 58° W 16:33:12 10° NNW
CRYOSAT 2 4.4 16:25:28 10° N 16:30:23 75° E 16:35:16 10° S
ISS -1.8 16:28:04 10° NW 16:30:23 17° N 16:32:42 10° NE
Cosmos 1933 3.3 16:27:10 10° S 16:31:10 66° E 16:35:13 10° NNE
Cosmos 1633 Rocket 3.1 16:27:24 10° N 16:31:42 53° E 16:35:57 10° SSE
Cosmos 2218 Rocket 4.1 16:32:12 10° N 16:38:14 55° ENE 16:44:16 10° SSE
Cosmos 2366 rocket 4.1 16:33:09 10° N 16:39:12 54° ENE 16:45:11 10° SSE
ERS-2 3.2 16:36:46 10° NE 16:39:51 25° E 16:42:54 10° SSE
Meteor 1-25 Rocket 4.2 16:34:23 10° N 16:40:02 67° E 16:45:43 10° SSE
Envisat 3.4 16:35:57 10° S 16:41:00 70° WSW 16:46:06 10° NNW
Lacrosse 5 rocket 2.6 16:43:48 10° W 16:46:59 27° NNW 16:50:06 10° NNE
Cosmos 773 Rocket 4.0 16:42:13 10° SSW 16:47:29 90° ESE 16:52:49 10° NNE
SL-23 DEB 3.9 16:44:52 10° SW 16:48:18 87° SE 16:52:39 14° ENE
NOSS 3-2 (A) 4.2 16:45:20 10° S 16:50:00 28° ESE 16:54:01 14° ENE
YAOGAN 6 3.4 16:46:37 10° S 16:50:10 56° W 16:53:44 10° NNW
Cosmos 1606 4.5 16:49:25 10° SW 16:52:59 34° WNW 16:56:34 10° N
FengYun 1-2 T 4.2 16:49:45 10° SSE 16:55:12 66° ENE 17:00:40 10° N
AQUARIUS 4.1 16:50:46 10° SSE 16:55:15 86° E 16:59:46 10° NNW
Cosmos 2297 4.2 16:50:04 10° NNW 16:55:43 65° WSW 17:01:21 10° S
SL-16 R/B 3.0 16:52:10 10° SW 16:57:40 52° WNW 17:03:13 10° NNE
CZ-4B R/B 1.4 16:56:26 11° NNE 16:59:23 51° E 17:02:29 10° S
BREEZE-M DEB (TANK) 2.7 17:00:21 10° W 17:02:39 34° NNW 17:03:26 24° NNE
USA 215 3.8 16:59:20 16° ENE 17:04:13 41° SE 17:10:19 10° SSW
SMAP 3.5 16:59:39 10° S 17:04:16 68° WSW 17:08:55 10° NNW
Cosmos 1500 3.9 17:03:48 10° NNE 17:07:14 30° ENE 17:10:38 10° SE
YAOGAN 1 4.0 17:09:18 19° NE 17:09:18 19° NE 17:11:23 10° NNE
USA 238 DEB 4.2 17:03:05 10° S 17:09:01 38° ESE 17:13:06 20° ENE
USA 238 4.2 17:03:11 10° S 17:09:07 38° ESE 17:13:10 20° ENE
Cosmos 1151 Rocket 3.7 17:07:09 10° SSW 17:11:19 55° W 17:15:31 10° N
Cosmos 1656 Rocket 4.2 17:06:35 10° N 17:11:47 36° ENE 17:16:53 10° ESE
SL-24 DEB 4.4 17:08:37 10° NNE 17:13:13 49° E 17:17:44 10° SSE
Cosmos 1470 Rocket 3.4 17:09:53 10° N 17:14:13 88° E 17:18:32 10° S
MOS 1 Rocket 4.4 17:13:25 18° NE 17:16:31 30° E 17:21:10 10° SSE
Cosmos 158 Rocket 4.3 17:14:02 10° S 17:18:39 40° ESE 17:20:54 25° NE
Cosmos 1515 Rocket 3.5 17:14:54 10° S 17:19:17 88° E 17:23:43 10° N
CZ-2C R/B 3.4 17:15:34 10° SE 17:20:04 35° ENE 17:24:27 10° N
Cosmos 2263 4.2 17:15:13 10° NNW 17:20:44 54° ENE 17:26:12 10° SE
SWAS 4.3 17:17:15 10° SSW 17:21:31 79° ESE 17:24:10 23° NNE
Cosmos 923 Rocket 4.3 17:17:04 10° S 17:21:59 45° ESE 17:24:50 23° NE
Cosmos 482 Debris 3.6 17:22:12 10° WNW 17:23:46 45° WSW 17:23:46 45° WSW
Cosmos 1238 Rocket 3.6 17:22:30 10° N 17:26:22 38° E 17:30:59 10° SSE
USA 281 3.5 17:20:58 10° ESE 17:27:02 41° NE 17:33:07 10° N
COSMO-SKYMED 1 2.5 17:23:06 12° NNE 17:27:05 70° ESE 17:31:25 10° S
Cosmos 1689 Rocket 3.2 17:29:01 30° SSE 17:29:01 30° SSE 17:30:50 10° S
YAOGAN 3 4.4 17:23:52 10° SSE 17:28:13 81° ENE 17:32:36 10° N
Nadezhda 3 Rocket 4.1 17:22:22 10° S 17:28:34 58° E 17:34:47 10° NNE
X-37B 0.7 17:25:55 10° W 17:29:04 61° N 17:29:28 54° NNE
SAR-Lupe-4 3.4 17:29:14 34° NNE 17:30:38 67° ESE 17:34:11 10° S
Helios 1A Rocket 4.2 17:33:26 24° NNE 17:33:26 24° NNE 17:35:19 10° N
Meteor 2-6 Rocket 4.1 17:26:08 10° S 17:31:40 64° E 17:37:04 10° NNE
Cosmos 2228 Rocket 3.1 17:27:26 10° S 17:31:52 57° E 17:34:29 23° NNE
Meteor 1-4 Rocket 4.0 17:30:01 10° SW 17:33:23 37° WNW 17:36:42 10° N
H-2A R/B 2.6 17:35:18 33° ENE 17:35:18 33° ENE 17:39:30 10° N
Cosmos 1812 2.6 17:31:58 10° S 17:35:44 61° E 17:36:35 47° NE
USA 267 3.9 17:34:11 28° ENE 17:36:34 36° NNE 17:42:25 10° NW
Cosmos 1939 Rocket 2.8 17:33:39 10° S 17:37:31 78° WSW 17:41:28 10° NNW
Cosmos 1821 Rocket 3.9 17:32:54 10° N 17:39:08 68° E 17:45:27 10° SSE
CZ-4 R/B 4.3 17:35:11 10° SSE 17:39:18 73° ENE 17:43:26 10° N
CZ-4 R/B 2.5 17:41:27 29° NNE 17:41:27 29° NNE 17:43:41 10° N
Cosmos 2084 4.5 17:36:28 10° S 17:39:33 29° SE 17:39:33 29° SE
Meteor 1-11 Rocket 4.0 17:36:38 10° N 17:42:11 45° ENE 17:47:49 10° SSE
BREEZE-M DEB (TANK) 2.5 17:39:19 10° SW 17:42:53 43° SSE 17:42:53 43° SSE
PSLV R/B 3.7 17:42:20 45° NNE 17:43:26 71° ESE 17:47:28 10° S
IRS-1C Rocket 4.0 17:38:29 10° SSE 17:43:46 88° ENE 17:49:05 10° NNW
Cosmos 44 Rocket 3.6 17:39:14 10° NNW 17:44:16 49° NE 17:45:09 44° E
Cosmos 1933 Rocket 4.0 17:39:50 10° NNW 17:44:17 65° W 17:48:40 10° S
SAR-Lupe-1 4.1 17:46:35 45° N 17:47:35 77° WNW 17:51:10 10° SSW
Lacrosse 4 Rocket 2.7 17:44:46 10° S 17:46:59 26° SSE 17:46:59 26° SSE
Cosmos 1680 Rocket 3.5 17:43:39 10° S 17:48:49 61° ESE 17:50:19 43° NE
SL-24 R/B 3.9 17:49:33 32° N 17:51:10 68° WNW 17:54:46 10° SSW
Cosmos 1603 3.9 17:47:35 10° SSW 17:53:11 68° WNW 17:56:56 21° NNE
CZ-2D R/B 3.4 17:50:35 10° S 17:54:22 71° WSW 17:58:14 10° NNW
Cosmos 1943 3.3 17:50:53 10° SSW 17:56:32 73° WNW 17:59:58 25° NNE
Cosmos 2369 Rocket 2.9 17:54:53 10° NNW 18:00:24 54° WSW 18:05:52 10° S
Okean O Rocket 4.4 17:58:19 10° SW 18:01:23 19° W 18:04:29 10° NW
Cosmos 1943 Rocket 4.0 17:56:38 10° NW 18:01:28 31° WSW 18:06:19 10° SSW
Meteor 1-5 Rocket 4.3 17:56:44 10° NNW 18:02:37 78° W 18:08:18 10° S
Okean-O 2.5 17:58:15 10° SSE 18:02:40 89° SW 18:07:08 10° NNW
Cosmos 1461 3.4 17:58:55 10° SSW 18:02:44 53° SSE 18:02:44 53° SSE
CENTAUR R/B 2.4 18:01:02 10° SSW 18:06:41 64° ESE 18:07:45 56° ENE
ISS -1.2 18:05:07 10° NW 18:05:55 15° NNW 18:05:55 15° NNW
Cosmos 2112 Rocket 3.9 18:04:07 10° SSW 18:09:23 79° ESE 18:09:53 71° NE
NOSS 3-2 (C) 3.1 18:09:20 10° SSW 18:14:50 71° ESE 18:15:09 70° E
Cosmos 1869 Rocket 4.3 18:14:34 10° NNW 18:22:43 15° S 18:23:27 10° S
BREEZE-M DEB (TANK) 3.4 18:12:47 10° WSW 18:19:59 65° WNW 18:19:59 65° WNW
Meteor 1-27 Rocket 3.5 18:14:50 10° S 18:20:12 80° SE 18:20:12 80° SE
Gblst 52 Del rocket 4.5 18:31:48 10° SW 18:37:18 65° SSW 18:37:18 65° SSW
NOSS 3-2 (A) 4.0 18:34:54 10° WSW 18:40:24 50° NW 18:41:26 45° NNW
USA 215 3.4 18:46:42 59° N 18:47:23 63° NW 18:53:49 10° WSW
USA 238 DEB 4.3 18:53:29 10° WSW 18:59:48 47° NW 19:00:34 45° NNW
USA 238 4.3 18:53:33 10° WSW 18:59:54 47° NW 19:00:39 45° NNW
USA 281 4.3 19:05:23 10° S 19:11:29 40° WSW 19:17:38 10° NW
H-2A R/B 3.9 19:15:55 26° WNW 19:15:55 26° WNW 19:18:52 10° NW
USA 267 4.1 19:21:32 43° NW 19:21:32 43° NW 19:25:43 10° NW
